Regional Weather Roundup
Issued by NWS Upton, NY

Current Version | Previous Version | Text Only | Print | Product List | Glossary On
Versions: 1 2 3 4 5 6 7 8 9 10 11 12 13 14 15 16 17 18 19 20 21 22 23 24 25 26 27 28 29 30 31 32 33 34 35 36 37 38 39 40 41 42 43 44 45 46 47 48 49 50
000
ASUS41 KOKX 300305
RWROKX

REGIONAL WEATHER ROUNDUP
NATIONAL WEATHER SERVICE NEW YORK NY
1100 PM EDT MON SEP 29 2014

NOTE: "FAIR" INDICATES FEW OR NO CLOUDS BELOW 12,000 FEET WITH NO
SIGNIFICANT WEATHER AND/OR OBSTRUCTIONS TO VISIBILITY.

NYZ071-072-176-178-NJZ106-104-300400-
NEW YORK CITY METRO AREA


CITY           SKY/WX    TMP DP  RH WIND       PRES   REMARKS
CENTRAL PARK   CLOUDY    72  58  61 CALM      29.97R
LAGUARDIA APRT CLOUDY    73  60  63 SW6       29.93R
KENNEDY INTL   LGT RAIN  69  64  84 W8        29.94S
NEWARK/LIBERTY LGT RAIN  69  60  73 SW7       29.94R
BRNX BOT. GARD   N/A     72  59  64 W6        29.94R
TETERBORO      LGT RAIN  71  59  65 CALM      29.92S
$$

NYZ177-179-078>081-300400-
LONG ISLAND NEW YORK

CITY           SKY/WX    TMP DP  RH WIND       PRES   REMARKS
FARMINGDALE    CLOUDY    69  65  86 SE3       29.94S
ISLIP          CLOUDY    68  65  90 S6        29.93R
SHIRLEY        CLOUDY    67  65  93 CALM      29.95S FOG
WESTHAMPTON    CLOUDY    66  64  93 SE3       29.96F FOG
MONTAUK POINT    N/A     67  65  93 N3        29.98R
$$

NYZ052-065-067-300400-
HUDSON VALLEY

CITY           SKY/WX    TMP DP  RH WIND       PRES   REMARKS
WHITE PLAINS   CLOUDY    65  61  87 NW6       29.94S
NEWBURGH       PTCLDY    68  61  77 CALM      29.95S
MONTGOMERY     CLOUDY    62  59  90 CALM      29.93F
POUGHKEEPSIE   CLOUDY    67  61  81 CALM      29.92S
ALBANY         CLOUDY    59  57  93 CALM      29.94S
$$

NJZ001-105-106-008-010-013-015-019>022-104-300400-
NEW JERSEY

CITY           SKY/WX    TMP DP  RH WIND       PRES   REMARKS
NEWARK/LIBERTY LGT RAIN  69  60  73 SW7       29.94R
TETERBORO      LGT RAIN  71  59  65 CALM      29.92S
CALDWELL       CLOUDY    67  59  75 CALM      29.94S
MORRISTOWN     CLOUDY    66  61  82 CALM      29.94S
SOMERVILLE     CLOUDY    64  60  87 CALM      29.93S
LINDEN         DRIZZLE   73  64  73 CALM      29.96R
SUSSEX         CLOUDY    63  59  87 CALM      29.93F
ANDOVER          N/A     61  60  97 SW3       29.94F
TRENTON        CLOUDY    66  61  84 CALM      29.94S
MILLVILLE      CLOUDY    65  63  93 CALM      29.95F
ATLANTIC CITY  CLOUDY    66  65  96 MISG      29.96S
WRIGHTSTOWN    LGT RAIN  64  64  98 S5        29.93S
TOMS RIVER     CLOUDY    64  63  94 CALM      29.96S
BELMAR         CLOUDY    66  61  82 W9        29.95S
$$

PAZ047>061-062-071-300400-
EASTERN PENNSYLVANIA

CITY           SKY/WX    TMP DP  RH WIND       PRES   REMARKS
PHILADELPHIA   CLOUDY    67  63  87 S3        29.95S
ALLENTOWN      CLOUDY    65  61  87 W3        29.94S
SCRANTON       MOCLDY    63  56  78 E7        29.93S
$$

CTZ002-004>006-009-010-012-RIZ004-006-007-MAZ004-011-015-300400-
SOUTHERN NEW ENGLAND
 IN CT

CITY           SKY/WX    TMP DP  RH WIND       PRES   REMARKS
BRADLEY INTL   CLOUDY    67  59  75 E5        29.96F
HARTFORD       CLOUDY    67  60  78 SE8       29.97R
DANBURY        CLOUDY    64  60  87 CALM      29.97R
WTRBRY/OXFORD  CLOUDY    64  57  77 NE3       29.97F
BRIDGEPORT     CLOUDY    69  65  86 N5        29.93F
MERIDEN        CLOUDY    66  63  90 NE3       29.96R
NEW HAVEN      CLOUDY    69  64  84 NE5       29.95S
CHESTER        CLOUDY    64  64 100 CALM      29.98S FOG
GROTON         CLOUDY    65  64  97 E8        29.97R
WILLIMANTIC    CLOUDY    64  59  83 NE10      29.99R

 IN RI

CITY           SKY/WX    TMP DP  RH WIND       PRES   REMARKS
PROVIDENCE     CLOUDY    61  58  90 NE12      30.00S
BLOCK ISLAND   CLOUDY    64  63  94 NE3       29.98S
WESTERLY       CLOUDY    64  61  90 NE5       29.98R

 IN MA

CITY           SKY/WX    TMP DP  RH WIND       PRES   REMARKS
BOSTON         LGT RAIN  58  57  97 N12       30.02S FOG
WORCESTER        N/A     54  54 100 NE10      30.02F VSB 1/2
WESTFIELD      CLOUDY    64  58  80 NE8       29.98F
PROVINCETOWN   CLOUDY    63  59  88 N5        29.99R
NANTUCKET      CLOUDY    64  63  96 CALM      29.98R FOG
$$

ANZ330-335-338-340-345-350-353-355-300400-
COASTAL MARINE OBSERVATIONS


STATION/POSITION TIME  SKY/WX   TEMP    WIND        PRES    VSBY  WAVE
                                AIR SEA DIR/SP/G                  HT/PER
                 (UTC)          (F)     (DEG/KT/KT) (MB)    (MI)  (FT/S)
NY HARB ENTRANCE 0300            69 69  230/  8/ 10 1014.2          2/ 7
4S FIRE IS       0300               69                N/A           2/ 8
20S FIRE ISLAND  0300            68 68  220/ 10/ 12 1013.9          2/ 7
23SW MTP         0300                                 N/A           2/ 8
HUDSON CANYON    0300            69 71  240/  8/  8 1014.1          2/ 8
EXECUTION ROCKS  0300            70 69  340/  2/  4   N/A
WESTERN LI SOUND 0300            70     320/  2/  4   N/A           0
CENTRAL LI SOUND 0200            68 69  210/  2/  4   N/A           0
EASTERN LI SOUND 0200            67 68  100/  4/  6   N/A
ROBBINS REEF     0200            71     260/  7/  9 1012.3
$$


>>>>>>>>>>>>>>>>>>>>>>>>>>>> KEY <<<<<<<<<<<<<<<<<<<<<<<<<<<
>                                                          <
>     SKY/WX - SKY CONDITION/PRESENT WEATHER               <
>     TMP    - TEMPERATURE IN FAHRENHEIT                   <
>     DP     - DEWPOINT IN FAHRENHEIT                      <
>     RH     - RELATIVE HUMIDITY IN PERCENT                <
>     WIND   - DIRECTION AND SPEED IN MPH                  <
>     PRES   - MEAN SEA LEVEL PRESSURE IN INCHES OF HG     <
>     WCI    - WIND CHILL INDEX                            <
>     VSB    - VISIBILITY IN MILES                         <
>     HX     - HEAT INDEX                                  <
>     TC     - TEMPERATURE IN CELSIUS                      <
>     VRB    - VARIABLE WIND DIRECTION                     <
>                                                          <
>>>>>>>>>>>>>>>>>>>>>>>>>>>> KEY <<<<<<<<<<<<<<<<<<<<<<<<<<<




USA.gov is the U.S. government's official web portal to all federal, state and local government web resources and services.